Asheville, NC

4:48 PM EDT on April 24, 2017 (GMT -0400)
Asheville Regional

Weather History for KAVL - March, 2010

Change the Weather History Date:

Monday, March 1, 2010

  Actual Average Record
Temperature  
Mean Temperature 37 °F 43 °F  
Max Temperature 43 °F 54 °F 76 °F (2006)
Min Temperature 30 °F 32 °F 10 °F (1914)
Degree Days  
Heating Degree Days 28 22  
Month to date heating degree days 28 22  
Since 1 July heating degree days 3608 3239  
Cooling Degree Days 0 0  
Month to date cooling degree days 0 0  
Year to date cooling degree days 0 0  
Moisture  
Dew Point 25 °F    
Average Humidity 64    
Maximum Humidity 78    
Minimum Humidity 49    
Precipitation  
Precipitation 0.00 in 0.12 in 2.38 in (2007)
Month to date precipitation 0.00 0.12  
Year to date precipitation 10.35 7.55  
Snow  
Snow 0.00 in 0.10 in 6.40 in (1969)
Month to date snowfall 0.0 0.1  
Since 1 July snowfall 29.4 7.4  
Snow Depth 0.00 in    
Sea Level Pressure  
Sea Level Pressure 29.99 in    
Wind  
Wind Speed 13 mph (NNW)    
Max Wind Speed 32 mph    
Max Gust Speed 37 mph    
Visibility 10 miles    
Events      
T = Trace of Precipitation, MM = Missing Value Source: NWS Daily Summary

Daily Weather History Graph

Daily Weather History Graph

Search for Another Location

Airport or City:

Trip Planner

Search our weather history database for the weather conditions in past years. The results will help you decide how hot, cold, wet, or windy it might be!

Date:

Astronomy

Mar. 01, 2010 Rise Set
Actual Time 6:59 AM EST 6:25 PM EST
Civil Twilight 6:34 AM EST 6:51 PM EST
Nautical Twilight 6:04 AM EST 7:20 PM EST
Astronomical Twilight 5:35 AM EST 7:50 PM EST
Moon 7:58 PM EST (3/1) 7:13 AM EST (3/1)
Length of Visible Light 12h 16m
Length of Day
11h 25m
Full, 98% of the Moon is Illuminated
Mar 1
Full
Mar 7
Last Quarter
Mar 15
New
Mar 23
First Quarter
Mar 29
Full

Hourly Weather History & Observations

Time (EST) Temp. Windchill Dew Point Humidity Pressure Visibility Wind Dir Wind Speed Gust Speed Precip Events Conditions
12:54 AM 30.9 °F 19.8 °F 24.1 °F 76% 30.01 in 10.0 mi NNW 16.1 mph 21.9 mph N/A   Overcast
1:54 AM 30.0 °F 16.0 °F 24.1 °F 79% 29.98 in 10.0 mi NNW 25.3 mph - N/A   Overcast
2:16 AM 30.2 °F 15.4 °F 24.8 °F 80% 29.94 in 10.0 mi NNW 28.8 mph - N/A   Scattered Clouds
2:54 AM 30.0 °F 16.6 °F 25.0 °F 82% 29.97 in 10.0 mi NNW 23.0 mph 32.2 mph N/A   Mostly Cloudy
3:54 AM 30.0 °F 22.4 °F 24.1 °F 79% 29.99 in 10.0 mi North 8.1 mph 20.7 mph N/A   Mostly Cloudy
4:54 AM 30.0 °F 20.5 °F 24.1 °F 79% 30.01 in 10.0 mi North 11.5 mph 21.9 mph N/A   Mostly Cloudy
5:54 AM 30.0 °F 19.5 °F 24.1 °F 79% 30.04 in 10.0 mi NNW 13.8 mph 21.9 mph N/A   Mostly Cloudy
6:54 AM 30.0 °F 20.0 °F 24.1 °F 79% 30.04 in 10.0 mi NNW 12.7 mph - N/A   Overcast
7:19 AM 30.2 °F 17.8 °F 24.8 °F 80% 30.01 in 10.0 mi NNW 19.6 mph 27.6 mph N/A   Scattered Clouds
7:54 AM 30.9 °F 17.2 °F 24.1 °F 76% 30.03 in 10.0 mi NNW 25.3 mph 32.2 mph N/A   Clear
8:54 AM 32.0 °F 20.5 °F 25.0 °F 75% 30.04 in 10.0 mi NNW 18.4 mph - N/A   Mostly Cloudy
9:33 AM 33.8 °F 23.5 °F 24.8 °F 70% 30.00 in 10.0 mi NNW 16.1 mph 24.2 mph N/A   Partly Cloudy
9:54 AM 35.6 °F 28.0 °F 24.8 °F 65% 30.00 in 10.0 mi North 10.4 mph 16.1 mph N/A   Partly Cloudy
10:54 AM 37.0 °F 28.9 °F 25.0 °F 62% 30.03 in 10.0 mi North 12.7 mph - N/A   Clear
11:54 AM 41.0 °F 34.3 °F 25.0 °F 53% 30.02 in 10.0 mi North 11.5 mph - N/A   Clear
12:54 PM 42.1 °F 35.2 °F 25.0 °F 51% 30.01 in 10.0 mi North 12.7 mph 17.3 mph N/A   Clear
1:54 PM 42.1 °F 34.5 °F 26.1 °F 53% 29.99 in 10.0 mi North 15.0 mph - N/A   Clear
2:54 PM 42.1 °F 34.2 °F 26.1 °F 53% 29.97 in 10.0 mi North 16.1 mph 23.0 mph N/A   Clear
3:54 PM 43.0 °F 36.8 °F 26.1 °F 51% 29.96 in 10.0 mi NNW 11.5 mph - N/A   Clear
4:54 PM 41.0 °F 34.3 °F 26.1 °F 55% 29.96 in 10.0 mi NNW 11.5 mph - N/A   Clear
5:54 PM 39.9 °F 32.9 °F 26.1 °F 58% 29.96 in 10.0 mi North 11.5 mph - N/A   Clear
6:54 PM 37.9 °F 33.5 °F 26.1 °F 62% 29.97 in 10.0 mi North 5.8 mph - N/A   Clear
7:54 PM 37.0 °F 31.6 °F 26.1 °F 65% 29.97 in 10.0 mi North 6.9 mph - N/A   Clear
8:54 PM 36.0 °F 31.1 °F 26.1 °F 67% 29.97 in 10.0 mi North 5.8 mph - N/A   Clear
9:54 PM 34.0 °F 27.2 °F 26.1 °F 73% 29.97 in 10.0 mi North 8.1 mph - N/A   Clear
10:54 PM 35.1 °F 29.3 °F 25.0 °F 67% 29.98 in 10.0 mi North 6.9 mph - N/A   Clear
11:54 PM 34.0 °F 29.8 °F 25.0 °F 70% 29.91 in 10.0 mi North 4.6 mph - N/A   Clear